User: anonymous   Login
Location: Anton
(37.3520°N, 87.3947°W)
Time: 08:09:46
(UTC+00:00)
Language:

BlueWalker 3 - Orbit

View from above orbital plane
View from above orbital plane
View from above satellite
View from above satellite

Ground track
Ground track

The orbit data is extracted from the following two-line orbital elements,

1 53807U 22111AL  23037.78158910  .00004542  00000-0  22698-3 0  9999
2 53807  53.2059 309.2263 0013256  21.7775 338.3783 15.19326550 22613
Epoch (UTC): 06 February 2023 18:45:29
Eccentricity: 0.0013256
inclination: 53.2059°
perigee height: 499 km
apogee height: 517 km
right ascension of ascending node: 309.2263°
argument of perigee: 21.7775°
revolutions per day: 15.19326550
mean anomaly at epoch: 338.3783°
orbit number at epoch: 2261

The dashed part of the orbit path shows where the satellite is in the earth's shadow,  

DLR